User: anonymous   Login
Location: Caltech
(34.1382°N, 118.1253°W)
Time: 05:22:33
(UTC-07:00)
Language:

Cosmos 1758 Rocket - Orbit

View from above orbital plane
View from above orbital plane
View from above satellite
View from above satellite

Ground track
Ground track

The orbit data is extracted from the following two-line orbital elements,

1 16792U 86046B   17266.68917206 +.00000064 +00000-0 +49716-5 0  9992
2 16792 082.4804 109.7339 0023521 332.1689 096.5503 14.83146714668399
Epoch (UTC): 23 September 2017 16:32:24
Eccentricity: 0.0023521
inclination: 82.4804°
perigee height: 603 km
apogee height: 636 km
right ascension of ascending node: 109.7339°
argument of perigee: 332.1689°
revolutions per day: 14.83146714
mean anomaly at epoch: 96.5503°
orbit number at epoch: 66839

The dashed part of the orbit path shows where the satellite is in the earth's shadow,  

DLR